User: anonymous   Login
Location: Nebula Knoll Observatory
(43.6666°N, 71.0000°W)
Time: 06:03:15
(UTC-05:00)
Language:

SeaSat 1 - Orbit

View from above orbital plane
View from above orbital plane
View from above satellite
View from above satellite

Ground track
Ground track

The orbit data is extracted from the following two-line orbital elements,

1 10967U 78064A   15064.21289790  .00000550  00000-0  20332-3 0  9995
2 10967 107.9918 355.6931 0002830 271.3849 088.6971 14.43301839926124
Epoch (UTC): 05 March 2015 05:06:34
Eccentricity: 0.0002830
inclination: 107.9918°
perigee height: 745 km
apogee height: 749 km
right ascension of ascending node: 355.6931°
argument of perigee: 271.3849°
revolutions per day: 14.43301839
mean anomaly at epoch: 88.6971°
orbit number at epoch: 92612

The dashed part of the orbit path shows where the satellite is in the earth's shadow,  

DLR